Hourly Weather Goetzenbruck

Today, 17 May, Monday

Time Temperature Precipitation Wind Pressure Humidity
00:00 +7°C° 0 mm 5 mps 726 mmHg 95%
01:00 +7°C° 0.5 mm 6 mps 726 mmHg 94%
02:00 +7°C° 0.5 mm 6 mps 726 mmHg 94%
03:00 +7°C° 0.5 mm 6 mps 727 mmHg 94%
04:00 +7°C° 0.4 mm 6 mps 727 mmHg 94%
05:00 +7°C° 0.4 mm 6 mps 727 mmHg 95%
06:00 +7°C° 0.4 mm 6 mps 728 mmHg 95%
07:00 +7°C° 0.3 mm 6 mps 728 mmHg 94%
08:00 +7°C° 0.3 mm 6 mps 729 mmHg 94%
09:00 +7°C° 0.3 mm 6 mps 729 mmHg 94%
10:00 +8°C° 0.4 mm 6 mps 729 mmHg 93%
11:00 +8°C° 0.4 mm 6 mps 729 mmHg 92%
12:00 +9°C° 0.4 mm 6 mps 730 mmHg 91%
13:00 +9°C° 0.5 mm 6 mps 730 mmHg 90%
14:00 +10°C° 0.5 mm 6 mps 730 mmHg 89%
15:00 +10°C° 0.5 mm 6 mps 730 mmHg 88%
16:00 +10°C° 0.5 mm 6 mps 730 mmHg 90%
17:00 +9°C° 0.5 mm 5 mps 730 mmHg 91%
18:00 +9°C° 0.5 mm 5 mps 731 mmHg 93%
19:00 +8°C° 0.2 mm 5 mps 731 mmHg 94%
20:00 +8°C° 0.2 mm 5 mps 731 mmHg 95%
21:00 +7°C° 0.2 mm 5 mps 732 mmHg 95%
22:00 +7°C° 0.4 mm 5 mps 732 mmHg 96%
23:00 +7°C° 0.4 mm 5 mps 732 mmHg 96%

Tomorrow, 18 May, Tuesday

Time Temperature Precipitation Wind Pressure Humidity
00:00 +7°C° 0.4 mm 5 mps 732 mmHg 96%
01:00 +7°C° 0.1 mm 4 mps 732 mmHg 96%
02:00 +7°C° 0.1 mm 4 mps 732 mmHg 97%
03:00 +7°C° 0.1 mm 4 mps 732 mmHg 97%
04:00 +7°C° 0.4 mm 4 mps 733 mmHg 96%
05:00 +7°C° 0.4 mm 5 mps 733 mmHg 96%
06:00 +7°C° 0.4 mm 5 mps 733 mmHg 95%
07:00 +7°C° 0.1 mm 5 mps 733 mmHg 94%
08:00 +7°C° 0.1 mm 5 mps 734 mmHg 93%
09:00 +8°C° 0.1 mm 5 mps 734 mmHg 92%
10:00 +8°C° 0.2 mm 5 mps 734 mmHg 91%
11:00 +8°C° 0.2 mm 5 mps 734 mmHg 90%
12:00 +8°C° 0.2 mm 5 mps 734 mmHg 90%
13:00 +8°C° 0.2 mm 5 mps 735 mmHg 89%
14:00 +8°C° 0.2 mm 5 mps 735 mmHg 88%
15:00 +9°C° 0.2 mm 5 mps 735 mmHg 87%
16:00 +8°C° 0.4 mm 4 mps 735 mmHg 89%
17:00 +8°C° 0.4 mm 4 mps 735 mmHg 91%
18:00 +8°C° 0.4 mm 3 mps 735 mmHg 93%
19:00 +8°C° 0.1 mm 3 mps 735 mmHg 94%
20:00 +8°C° 0.1 mm 3 mps 736 mmHg 95%
21:00 +7°C° 0.1 mm 3 mps 736 mmHg 96%
22:00 +7°C° 0 mm 3 mps 736 mmHg 96%
23:00 +6°C° 0 mm 2 mps 736 mmHg 97%

Day after tomorrow, 19 May, Wednesday

Time Temperature Precipitation Wind Pressure Humidity
00:00 +5°C° 0 mm 2 mps 736 mmHg 97%
01:00 +5°C° 0 mm 2 mps 736 mmHg 97%
02:00 +5°C° 0 mm 2 mps 737 mmHg 97%
03:00 +4°C° 0 mm 2 mps 737 mmHg 97%
04:00 +5°C° 0 mm 2 mps 737 mmHg 96%
05:00 +5°C° 0 mm 3 mps 737 mmHg 95%
06:00 +7°C° 0 mm 3 mps 738 mmHg 94%
07:00 +8°C° 0.1 mm 3 mps 738 mmHg 89%
08:00 +9°C° 0.1 mm 3 mps 737 mmHg 83%
09:00 +11°C° 0.1 mm 4 mps 737 mmHg 77%
10:00 +11°C° 0.4 mm 4 mps 737 mmHg 79%
11:00 +11°C° 0.4 mm 4 mps 737 mmHg 81%
12:00 +10°C° 0.4 mm 5 mps 737 mmHg 83%
13:00 +11°C° 0.3 mm 4 mps 737 mmHg 83%
14:00 +10°C° 0.3 mm 4 mps 737 mmHg 83%
15:00 +10°C° 0.3 mm 3 mps 737 mmHg 83%
16:00 +10°C° 0.4 mm 3 mps 736 mmHg 86%
17:00 +10°C° 0.4 mm 2 mps 736 mmHg 89%
18:00 +9°C° 0.4 mm 2 mps 736 mmHg 92%
19:00 +8°C° 0.1 mm 2 mps 737 mmHg 93%
20:00 +7°C° 0.1 mm 2 mps 737 mmHg 94%
21:00 +7°C° 0.1 mm 1 mps 737 mmHg 95%
22:00 +6°C° 0.1 mm 2 mps 737 mmHg 95%
23:00 +6°C° 0.1 mm 2 mps 738 mmHg 96%

20 May, Thursday

Time Temperature Precipitation Wind Pressure Humidity
00:00 +6°C° 0.1 mm 2 mps 738 mmHg 97%
01:00 +6°C° 0.1 mm 2 mps 738 mmHg 97%
02:00 +6°C° 0.1 mm 2 mps 738 mmHg 97%
03:00 +6°C° 0.1 mm 2 mps 739 mmHg 97%
04:00 +6°C° 0 mm 2 mps 739 mmHg 96%
05:00 +7°C° 0 mm 2 mps 740 mmHg 96%
06:00 +7°C° 0 mm 2 mps 740 mmHg 95%
07:00 +9°C° 0.1 mm 2 mps 741 mmHg 88%
08:00 +10°C° 0.1 mm 2 mps 741 mmHg 82%
09:00 +11°C° 0.1 mm 3 mps 741 mmHg 75%
10:00 +12°C° 0.1 mm 3 mps 741 mmHg 67%
11:00 +14°C° 0.1 mm 3 mps 741 mmHg 59%
12:00 +16°C° 0.1 mm 3 mps 741 mmHg 51%
13:00 +16°C° 0 mm 3 mps 741 mmHg 51%
14:00 +16°C° 0 mm 3 mps 741 mmHg 51%
15:00 +16°C° 0 mm 3 mps 741 mmHg 51%
16:00 +14°C° 0.1 mm 3 mps 741 mmHg 60%
17:00 +13°C° 0.1 mm 3 mps 741 mmHg 68%
18:00 +13°C° 0.1 mm 2 mps 741 mmHg 77%
19:00 +12°C° 0 mm 2 mps 741 mmHg 82%
20:00 +9°C° 0 mm 2 mps 741 mmHg 87%
21:00 +8°C° 0 mm 1 mps 741 mmHg 92%
22:00 +8°C° 0 mm 1 mps 741 mmHg 93%
23:00 +8°C° 0 mm 1 mps 740 mmHg 93%

21 May, Friday

Time Temperature Precipitation Wind Pressure Humidity
00:00 +7°C° 0 mm 1 mps 740 mmHg 93%
01:00 +7°C° 0 mm 1 mps 739 mmHg 93%
02:00 +7°C° 0 mm 1 mps 739 mmHg 94%
03:00 +7°C° 0 mm 1 mps 738 mmHg 94%
04:00 +8°C° 0 mm 1 mps 738 mmHg 91%
05:00 +9°C° 0 mm 1 mps 738 mmHg 88%
06:00 +10°C° 0 mm 1 mps 738 mmHg 85%
07:00 +12°C° 0 mm 1 mps 737 mmHg 77%
08:00 +14°C° 0 mm 2 mps 737 mmHg 70%
09:00 +15°C° 0 mm 2 mps 736 mmHg 63%
10:00 +16°C° 0 mm 3 mps 736 mmHg 59%
11:00 +17°C° 0 mm 3 mps 735 mmHg 56%
12:00 +18°C° 0 mm 3 mps 735 mmHg 53%
13:00 +18°C° 0 mm 3 mps 734 mmHg 54%
14:00 +18°C° 0 mm 3 mps 733 mmHg 55%
15:00 +18°C° 0 mm 4 mps 732 mmHg 56%
16:00 +17°C° 0 mm 3 mps 732 mmHg 62%
17:00 +17°C° 0 mm 3 mps 731 mmHg 67%
18:00 +16°C° 0 mm 3 mps 731 mmHg 73%
19:00 +14°C° 0.7 mm 3 mps 731 mmHg 79%
20:00 +13°C° 0.7 mm 4 mps 731 mmHg 86%
21:00 +12°C° 0.7 mm 5 mps 730 mmHg 92%
22:00 +10°C° 0.9 mm 5 mps 730 mmHg 93%
23:00 +10°C° 0.9 mm 5 mps 730 mmHg 93%

22 May, Saturday

Time Temperature Precipitation Wind Pressure Humidity
00:00 +10°C° 0.9 mm 6 mps 730 mmHg 94%
01:00 +9°C° 0.1 mm 5 mps 730 mmHg 94%
02:00 +8°C° 0.1 mm 5 mps 731 mmHg 94%
03:00 +7°C° 0.1 mm 5 mps 731 mmHg 94%
04:00 +7°C° 0.1 mm 5 mps 731 mmHg 93%
05:00 +7°C° 0.1 mm 5 mps 732 mmHg 92%
06:00 +7°C° 0.1 mm 5 mps 732 mmHg 90%
07:00 +8°C° 0.1 mm 6 mps 733 mmHg 83%
08:00 +9°C° 0.1 mm 6 mps 733 mmHg 76%
09:00 +10°C° 0.1 mm 7 mps 733 mmHg 69%
10:00 +11°C° 0.1 mm 7 mps 733 mmHg 64%
11:00 +12°C° 0.1 mm 7 mps 732 mmHg 59%
12:00 +14°C° 0.1 mm 7 mps 732 mmHg 54%
13:00 +14°C° 0.2 mm 7 mps 732 mmHg 57%
14:00 +13°C° 0.2 mm 6 mps 732 mmHg 61%
15:00 +13°C° 0.2 mm 6 mps 731 mmHg 64%
16:00 +11°C° 0.3 mm 6 mps 731 mmHg 70%
17:00 +10°C° 0.3 mm 5 mps 731 mmHg 75%
18:00 +9°C° 0.3 mm 5 mps 731 mmHg 81%
19:00 +9°C° 0 mm 5 mps 731 mmHg 83%
20:00 +8°C° 0 mm 4 mps 731 mmHg 84%
21:00 +7°C° 0 mm 4 mps 732 mmHg 86%
22:00 +7°C° 0 mm 4 mps 731 mmHg 87%
23:00 +6°C° 0 mm 4 mps 731 mmHg 87%
Show more